When you browse on this site, cookies collect data to enhance your experience and personalize the content and advertising you see.
Visit our Privacy Policy to learn more. By continuing to use the site, you agree to this use of cookies and data.
  • In Schweiz
  • Länderverzeichnis
  • Für 7 Tage
  • Wassertemperatur
  • Satellitenkarten
  • Wetterkarte
  • Widgets
  • user-avatar
    Anmelden

    Stündliche Wetter Kabul

    Heute, 16 Juni, Sonntag

    Zeit Temperatur Niederschläge Wind Luftdruck Luftfeuchtigkeit
    00:00 +19°C° 0 mm 3 m/S 610 mmHg 28%
    01:00 +18°C° 0 mm 3 m/S 609 mmHg 30%
    02:00 +18°C° 0 mm 2 m/S 609 mmHg 32%
    03:00 +17°C° 0 mm 2 m/S 608 mmHg 34%
    04:00 +16°C° 0 mm 2 m/S 608 mmHg 36%
    05:00 +16°C° 0 mm 1 m/S 608 mmHg 38%
    06:00 +18°C° 0 mm 1 m/S 609 mmHg 35%
    07:00 +20°C° 0 mm 1 m/S 609 mmHg 31%
    08:00 +21°C° 0 mm 1 m/S 610 mmHg 27%
    09:00 +22°C° 0 mm 1 m/S 610 mmHg 24%
    10:00 +24°C° 0 mm 2 m/S 611 mmHg 21%
    11:00 +25°C° 0 mm 2 m/S 611 mmHg 18%
    12:00 +27°C° 0 mm 3 m/S 611 mmHg 16%
    13:00 +28°C° 0 mm 3 m/S 611 mmHg 14%
    14:00 +29°C° 0 mm 4 m/S 611 mmHg 13%
    15:00 +29°C° 0 mm 4 m/S 611 mmHg 13%
    16:00 +29°C° 0 mm 4 m/S 610 mmHg 13%
    17:00 +29°C° 0 mm 5 m/S 610 mmHg 13%
    18:00 +28°C° 0 mm 4 m/S 610 mmHg 16%
    19:00 +26°C° 0 mm 3 m/S 609 mmHg 18%
    20:00 +24°C° 0 mm 3 m/S 609 mmHg 21%
    21:00 +22°C° 0 mm 3 m/S 609 mmHg 22%
    22:00 +21°C° 0 mm 2 m/S 609 mmHg 24%
    23:00 +20°C° 0 mm 2 m/S 608 mmHg 25%

    Morgen, 17 Juni, Montag

    Zeit Temperatur Niederschläge Wind Luftdruck Luftfeuchtigkeit
    00:00 +20°C° 0 mm 2 m/S 608 mmHg 26%
    01:00 +20°C° 0 mm 1 m/S 608 mmHg 28%
    02:00 +19°C° 0 mm 1 m/S 607 mmHg 29%
    03:00 +19°C° 0 mm 1 m/S 607 mmHg 30%
    04:00 +18°C° 0 mm 1 m/S 607 mmHg 31%
    05:00 +18°C° 0 mm 1 m/S 606 mmHg 32%
    06:00 +19°C° 0 mm 1 m/S 607 mmHg 28%
    07:00 +21°C° 0 mm 1 m/S 608 mmHg 25%
    08:00 +23°C° 0 mm 1 m/S 609 mmHg 21%
    09:00 +24°C° 0 mm 2 m/S 609 mmHg 19%
    10:00 +25°C° 0 mm 2 m/S 609 mmHg 18%
    11:00 +27°C° 0 mm 2 m/S 610 mmHg 16%
    12:00 +28°C° 0 mm 3 m/S 610 mmHg 15%
    13:00 +29°C° 0 mm 3 m/S 610 mmHg 14%
    14:00 +30°C° 0 mm 3 m/S 610 mmHg 14%
    15:00 +30°C° 0 mm 4 m/S 609 mmHg 13%
    16:00 +30°C° 0 mm 5 m/S 609 mmHg 13%
    17:00 +29°C° 0 mm 6 m/S 609 mmHg 13%
    18:00 +28°C° 0 mm 5 m/S 608 mmHg 14%
    19:00 +26°C° 0 mm 4 m/S 608 mmHg 16%
    20:00 +23°C° 0 mm 4 m/S 608 mmHg 17%
    21:00 +22°C° 0 mm 3 m/S 608 mmHg 19%
    22:00 +21°C° 0 mm 2 m/S 608 mmHg 20%
    23:00 +20°C° 0 mm 2 m/S 607 mmHg 22%

    übermorgen, 18 Juni, Dienstag

    Zeit Temperatur Niederschläge Wind Luftdruck Luftfeuchtigkeit
    00:00 +20°C° 0 mm 2 m/S 607 mmHg 23%
    01:00 +20°C° 0 mm 1 m/S 607 mmHg 24%
    02:00 +19°C° 0 mm 1 m/S 606 mmHg 25%
    03:00 +18°C° 0 mm 1 m/S 606 mmHg 26%
    04:00 +18°C° 0 mm 1 m/S 606 mmHg 26%
    05:00 +16°C° 0 mm 1 m/S 605 mmHg 27%
    06:00 +19°C° 0 mm 1 m/S 606 mmHg 24%
    07:00 +20°C° 0 mm 1 m/S 607 mmHg 21%
    08:00 +22°C° 0 mm 1 m/S 608 mmHg 18%
    09:00 +23°C° 0 mm 1 m/S 608 mmHg 16%
    10:00 +25°C° 0 mm 1 m/S 609 mmHg 14%
    11:00 +26°C° 0 mm 2 m/S 609 mmHg 13%
    12:00 +27°C° 0 mm 2 m/S 609 mmHg 12%
    13:00 +28°C° 0 mm 3 m/S 609 mmHg 11%
    14:00 +29°C° 0 mm 3 m/S 609 mmHg 10%
    15:00 +29°C° 0 mm 4 m/S 609 mmHg 10%
    16:00 +30°C° 0 mm 5 m/S 609 mmHg 10%
    17:00 +30°C° 0 mm 5 m/S 608 mmHg 11%
    18:00 +28°C° 0 mm 5 m/S 608 mmHg 12%
    19:00 +26°C° 0 mm 4 m/S 608 mmHg 14%
    20:00 +25°C° 0 mm 4 m/S 608 mmHg 16%
    21:00 +24°C° 0 mm 3 m/S 607 mmHg 18%
    22:00 +21°C° 0 mm 2 m/S 607 mmHg 20%
    23:00 +20°C° 0 mm 2 m/S 607 mmHg 21%

    19 Juni, Mittwoch

    Zeit Temperatur Niederschläge Wind Luftdruck Luftfeuchtigkeit
    00:00 +21°C° 0 mm 1 m/S 607 mmHg 23%
    01:00 +20°C° 0 mm 1 m/S 606 mmHg 24%
    02:00 +19°C° 0 mm 1 m/S 606 mmHg 25%
    03:00 +18°C° 0 mm 1 m/S 606 mmHg 25%
    04:00 +18°C° 0 mm 1 m/S 605 mmHg 26%
    05:00 +16°C° 0 mm 1 m/S 605 mmHg 26%
    06:00 +19°C° 0 mm 1 m/S 606 mmHg 23%
    07:00 +21°C° 0 mm 1 m/S 607 mmHg 20%
    08:00 +22°C° 0 mm 1 m/S 608 mmHg 17%
    09:00 +24°C° 0 mm 1 m/S 608 mmHg 15%
    10:00 +25°C° 0 mm 1 m/S 609 mmHg 14%
    11:00 +27°C° 0 mm 2 m/S 609 mmHg 12%
    12:00 +28°C° 0 mm 2 m/S 609 mmHg 11%
    13:00 +29°C° 0 mm 2 m/S 609 mmHg 11%
    14:00 +30°C° 0 mm 2 m/S 609 mmHg 10%
    15:00 +30°C° 0 mm 2 m/S 609 mmHg 10%
    16:00 +30°C° 0 mm 3 m/S 609 mmHg 10%
    17:00 +31°C° 0 mm 3 m/S 608 mmHg 10%
    18:00 +29°C° 0 mm 3 m/S 608 mmHg 12%
    19:00 +28°C° 0 mm 3 m/S 608 mmHg 14%
    20:00 +26°C° 0 mm 3 m/S 608 mmHg 17%
    21:00 +25°C° 0 mm 2 m/S 608 mmHg 18%
    22:00 +24°C° 0 mm 2 m/S 607 mmHg 19%
    23:00 +23°C° 0 mm 2 m/S 607 mmHg 20%

    20 Juni, Donnerstag

    Zeit Temperatur Niederschläge Wind Luftdruck Luftfeuchtigkeit
    00:00 +23°C° 0 mm 1 m/S 607 mmHg 21%
    01:00 +22°C° 0 mm 1 m/S 607 mmHg 22%
    02:00 +21°C° 0 mm 1 m/S 606 mmHg 23%
    03:00 +20°C° 0 mm 1 m/S 606 mmHg 24%
    04:00 +20°C° 0 mm 1 m/S 606 mmHg 25%
    05:00 +19°C° 0 mm 1 m/S 606 mmHg 27%
    06:00 +21°C° 0 mm 1 m/S 607 mmHg 24%
    07:00 +23°C° 0 mm 1 m/S 608 mmHg 20%
    08:00 +24°C° 0 mm 1 m/S 609 mmHg 17%
    09:00 +26°C° 0 mm 1 m/S 609 mmHg 16%
    10:00 +27°C° 0 mm 2 m/S 609 mmHg 15%
    11:00 +28°C° 0 mm 2 m/S 610 mmHg 14%
    12:00 +29°C° 0 mm 2 m/S 610 mmHg 13%
    13:00 +30°C° 0 mm 2 m/S 610 mmHg 12%
    14:00 +31°C° 0 mm 2 m/S 610 mmHg 12%
    15:00 +31°C° 0 mm 3 m/S 609 mmHg 13%
    16:00 +32°C° 0 mm 4 m/S 609 mmHg 14%
    17:00 +32°C° 0 mm 5 m/S 609 mmHg 14%
    18:00 +29°C° 0 mm 4 m/S 609 mmHg 16%
    19:00 +28°C° 0 mm 4 m/S 608 mmHg 19%
    20:00 +26°C° 0 mm 3 m/S 608 mmHg 21%
    21:00 +25°C° 0 mm 3 m/S 608 mmHg 22%
    22:00 +24°C° 0 mm 2 m/S 608 mmHg 23%
    23:00 +24°C° 0 mm 2 m/S 608 mmHg 24%

    21 Juni, Freitag

    Zeit Temperatur Niederschläge Wind Luftdruck Luftfeuchtigkeit
    00:00 +23°C° 0 mm 2 m/S 608 mmHg 27%
    01:00 +22°C° 0 mm 1 m/S 608 mmHg 29%
    02:00 +21°C° 0 mm 1 m/S 607 mmHg 31%
    03:00 +20°C° 0 mm 1 m/S 607 mmHg 32%
    04:00 +20°C° 0 mm 1 m/S 607 mmHg 32%
    05:00 +19°C° 0 mm 1 m/S 607 mmHg 33%
    06:00 +21°C° 0 mm 1 m/S 607 mmHg 30%
    07:00 +23°C° 0 mm 1 m/S 608 mmHg 26%
    08:00 +24°C° 0 mm 1 m/S 609 mmHg 22%
    09:00 +26°C° 0 mm 1 m/S 610 mmHg 21%
    10:00 +27°C° 0 mm 1 m/S 610 mmHg 19%
    11:00 +28°C° 0 mm 2 m/S 610 mmHg 17%
    12:00 +29°C° 0 mm 2 m/S 610 mmHg 16%
    13:00 +30°C° 0 mm 2 m/S 610 mmHg 15%
    14:00 +31°C° 0 mm 2 m/S 610 mmHg 14%
    15:00 +31°C° 0 mm 3 m/S 610 mmHg 14%
    16:00 +33°C° 0 mm 4 m/S 609 mmHg 13%
    17:00 +33°C° 0 mm 5 m/S 609 mmHg 13%
    18:00 +30°C° 0 mm 5 m/S 609 mmHg 15%
    19:00 +29°C° 0 mm 5 m/S 609 mmHg 17%
    20:00 +27°C° 0 mm 5 m/S 608 mmHg 19%
    21:00 +26°C° 0 mm 4 m/S 608 mmHg 21%
    22:00 +25°C° 0 mm 3 m/S 608 mmHg 23%
    23:00 +24°C° 0 mm 2 m/S 608 mmHg 25%
    Mehr zeigen